Theta_e
348 348 349 350 350 350 350 350 350 349 349 349 349 349 349 350 350 350 350 350 350 349 348 349 348 349 352 353 352 353 353 353 352 352 352 353 353 354 354 353 351 353 354 354 354 356 357 357 356 355 355 355 356 357 357 356 355 354 352 350 348 349 349 347 348 349 349 348 348 348 350 352 354 354 353 353 352 351 350 349 349 349 350 352 351
349 349 349 350 350 350 349 350 350 351 350 350 349 350 350 351 351 350 350 350 350 350 350 349 349 350 352 353 353 352 352 351 352 352 352 352 353 353 353 352 351 353 355 354 354 355 356 356 356 356 356 356 357 357 357 356 356 355 353 352 350 350 349 348 348 348 348 348 347 348 350 352 354 355 355 355 355 354 352 350 349 349 351 353 352
350 350 350 350 350 350 350 349 349 350 351 350 350 349 351 352 352 351 350 350 351 351 351 351 351 351 352 353 353 353 352 351 352 352 352 351 352 352 352 352 352 354 355 354 354 355 355 355 355 355 355 356 357 357 357 356 355 355 354 353 352 351 349 348 348 348 348 348 348 349 350 352 353 355 356 357 356 355 353 351 349 349 351 354 352
350 351 350 350 350 350 350 350 349 349 350 350 350 349 350 352 352 352 351 351 351 352 352 352 352 353 353 353 352 352 352 352 351 351 351 352 353 352 353 353 354 355 354 354 354 354 354 355 354 355 355 355 355 355 355 355 353 353 354 353 353 351 349 348 348 348 348 348 349 350 350 351 353 355 356 356 356 356 353 351 349 349 352 354 353
351 351 350 351 351 351 351 350 350 349 349 350 350 349 350 351 351 351 351 351 351 352 352 352 352 352 352 352 352 352 352 351 351 351 350 351 352 353 354 354 354 354 354 354 354 354 354 355 355 355 356 355 354 353 353 352 352 351 352 353 352 350 349 348 348 348 349 349 350 351 351 352 353 354 355 355 355 354 352 350 349 349 351 354 355
351 351 351 351 351 351 351 351 350 350 349 350 350 350 350 350 350 351 351 351 351 352 352 352 352 352 352 352 352 351 351 351 351 350 351 352 353 353 353 353 353 353 353 353 352 353 353 354 354 355 356 356 354 353 352 352 353 352 351 352 351 350 348 348 347 348 350 352 352 353 353 353 354 354 354 354 353 352 351 348 347 348 350 353 356
351 351 351 351 351 351 351 350 351 350 349 350 350 350 350 350 350 350 351 351 351 351 351 351 351 351 351 351 352 351 351 351 350 350 351 352 353 353 353 352 352 352 352 352 352 352 352 353 354 354 354 355 354 353 353 353 353 352 352 351 351 350 349 348 347 348 351 353 354 354 354 353 353 353 353 352 352 352 350 347 347 348 350 352 353
352 351 351 351 351 351 351 351 351 350 350 350 349 350 350 350 350 351 351 351 351 350 351 351 351 350 351 351 351 351 351 351 351 350 350 351 351 352 352 351 351 351 351 352 351 351 352 353 354 353 353 353 353 353 353 353 352 352 352 352 351 351 349 348 348 348 350 352 353 353 352 352 352 352 352 353 353 352 349 347 348 348 349 350 350
352 352 352 352 351 351 351 351 351 350 350 350 349 349 349 350 350 350 351 351 351 350 349 350 350 349 349 350 350 350 350 350 350 350 349 349 349 350 350 351 351 351 351 351 351 351 352 353 353 353 353 353 354 354 353 352 352 352 352 352 351 350 349 348 348 349 349 351 352 352 351 351 351 351 351 352 352 352 350 349 350 349 349 349 348
353 353 352 352 352 351 351 351 351 351 350 350 349 349 349 350 350 350 350 351 350 350 349 350 350 349 349 349 349 349 349 349 349 349 349 348 347 348 349 350 350 350 351 351 351 352 352 352 352 352 353 354 354 354 354 353 354 354 355 355 354 352 350 349 349 349 350 351 351 351 351 350 350 350 350 352 353 352 351 351 351 351 350 350 349
354 353 353 353 352 352 352 351 351 351 351 351 350 350 349 350 350 350 350 350 350 350 350 350 350 348 348 348 348 348 348 348 348 348 347 347 347 346 347 349 350 350 351 351 351 351 351 351 351 352 354 353 352 352 353 353 354 356 357 357 356 355 353 352 352 351 350 350 350 350 350 350 351 350 350 352 353 351 349 348 349 349 348 348 348
353 353 353 352 352 352 351 351 352 351 351 351 351 351 350 350 351 351 351 350 350 350 350 351 350 349 348 348 347 347 347 347 347 346 346 346 346 346 347 349 350 349 350 351 351 351 351 351 352 353 354 354 353 352 353 353 354 355 356 357 356 356 355 354 354 352 351 351 351 351 351 351 351 351 350 352 352 350 347 346 347 347 344 343 343
352 352 351 350 351 352 351 351 351 351 352 351 351 351 351 351 351 351 351 351 350 351 351 350 349 348 348 347 347 347 346 346 346 345 345 345 346 347 347 349 350 350 350 351 350 350 351 351 350 352 353 354 354 354 354 353 353 353 354 355 355 355 355 355 354 352 351 350 350 351 350 349 349 348 348 348 347 346 345 346 346 344 343 342 340
351 352 351 350 350 351 351 351 351 352 352 351 351 352 351 352 352 351 352 351 350 351 351 350 349 348 348 347 348 348 347 346 346 345 345 346 347 348 349 351 353 352 350 349 349 350 351 350 350 351 353 354 353 353 353 352 352 351 351 352 353 354 355 354 352 352 350 349 348 346 345 345 346 345 345 344 342 342 343 344 343 339 339 338 333
350 351 350 349 350 350 351 351 351 352 352 351 352 352 352 352 352 352 352 351 351 351 350 350 349 348 347 347 347 348 347 347 346 346 346 346 347 348 349 350 351 352 352 353 353 352 352 351 352 352 353 354 353 352 351 351 351 350 350 352 352 352 351 350 350 350 348 345 344 342 341 340 338 337 338 338 336 335 335 335 335 335 335 332 326
349 349 349 349 349 349 350 350 350 351 352 352 352 351 351 352 352 352 352 351 351 351 350 350 349 348 347 347 346 347 347 347 346 346 346 347 348 349 349 349 350 352 353 355 355 354 353 352 352 353 353 352 351 350 351 351 351 350 351 352 350 346 346 345 345 345 344 342 340 337 335 330 326 323 325 326 325 325 327 329 329 330 332 329 321
348 348 348 349 349 349 350 349 350 351 352 352 352 352 351 351 351 351 351 350 351 350 350 349 349 348 348 347 346 347 347 348 347 347 347 348 348 349 350 350 349 351 353 354 354 353 353 352 353 353 352 351 350 350 351 351 351 351 351 351 346 342 341 339 338 339 339 338 333 327 323 321 318 317 316 316 317 319 322 325 325 328 333 331 322
348 348 348 349 349 349 349 349 350 351 351 352 352 352 352 351 350 350 350 350 349 349 348 348 348 348 348 347 347 348 348 349 348 348 348 349 349 349 349 349 348 350 352 352 351 351 351 352 353 352 352 351 351 351 351 351 350 351 350 349 344 339 336 333 332 331 330 328 324 320 319 319 320 319 317 315 315 315 316 319 322 326 331 330 322
348 348 349 348 349 349 349 350 350 350 351 351 351 351 352 351 351 350 349 348 348 348 348 347 347 347 347 347 347 347 347 347 347 348 349 350 350 350 348 349 350 350 350 350 349 350 351 351 352 352 351 351 350 349 350 350 349 349 348 346 343 339 334 330 328 326 324 323 323 322 321 321 320 319 317 314 313 311 311 313 318 323 326 324 320
348 349 349 348 348 349 349 349 350 350 350 350 350 351 350 350 350 349 348 347 348 348 347 346 346 346 345 346 346 346 346 347 348 350 351 351 351 352 351 352 352 350 351 350 347 348 350 350 351 352 351 350 349 349 349 349 348 347 345 343 342 339 333 328 326 325 323 323 324 322 320 318 316 316 316 314 314 314 312 312 315 318 320 320 320
347 347 348 348 348 348 349 349 350 351 351 351 351 350 350 349 348 348 348 347 347 347 346 345 346 346 346 346 347 347 347 348 349 350 351 351 351 352 352 353 352 351 350 346 344 345 348 349 350 350 350 349 348 348 347 347 345 344 343 342 342 338 332 327 326 326 325 324 322 320 318 316 316 316 316 316 316 318 319 318 317 318 318 318 319
345 345 346 347 348 348 349 349 350 351 351 351 350 349 348 348 347 347 347 346 347 348 347 346 346 347 346 346 346 345 346 347 348 349 349 350 351 351 351 351 350 349 347 345 345 347 348 348 349 349 348 347 346 345 344 343 342 341 340 341 339 335 330 328 327 326 325 323 320 318 317 316 316 316 315 314 314 316 319 320 319 320 320 319 319
345 345 345 345 346 347 348 349 349 350 349 349 348 348 347 347 347 346 346 346 348 348 346 345 345 345 344 344 343 342 343 343 344 345 346 347 349 349 349 348 347 348 348 348 349 350 349 348 347 346 345 344 343 341 341 340 340 341 341 340 337 333 330 329 328 326 324 322 319 318 318 318 318 317 317 317 316 316 318 320 321 321 320 320 319
345 345 345 345 345 345 346 347 346 347 346 346 346 347 346 346 346 345 344 345 347 346 343 343 343 342 340 339 339 339 339 340 341 341 341 343 345 346 347 346 345 346 348 349 350 350 348 346 344 343 343 341 340 339 339 339 340 340 340 337 334 333 331 329 328 326 323 319 318 318 318 318 318 318 318 319 319 318 319 321 321 320 320 319 318
345 344 343 344 344 344 344 344 343 343 344 344 345 345 345 344 343 342 342 342 344 342 340 341 341 339 337 335 334 335 335 336 337 337 337 339 341 344 346 346 345 346 347 347 347 345 342 341 340 340 339 338 338 338 337 337 338 338 337 335 334 333 331 329 328 325 321 317 317 318 319 318 318 319 318 318 318 319 319 320 320 319 318 318 316
343 342 342 342 342 342 342 341 341 341 341 341 342 343 343 343 342 342 342 342 342 341 339 338 337 335 333 332 331 332 332 333 334 334 334 335 337 340 343 344 344 345 345 343 341 339 337 337 337 336 337 337 337 336 335 336 337 336 335 333 332 331 330 329 327 323 318 317 318 320 319 318 318 318 318 317 317 317 317 317 317 316 315 315 314
341 339 339 339 340 340 339 339 340 340 338 338 339 339 340 341 340 341 341 341 340 338 336 334 333 331 330 329 329 329 329 330 330 331 332 333 335 338 340 341 341 342 341 339 336 335 335 335 335 335 336 336 334 332 333 334 334 334 333 332 330 328 327 325 322 320 319 319 320 320 319 318 318 318 317 317 317 316 316 316 315 314 313 313 312
338 337 337 337 338 338 338 338 338 337 336 336 337 337 337 337 337 337 338 338 337 335 333 332 332 331 330 328 327 326 325 326 326 327 329 331 333 335 337 337 337 337 337 335 333 332 333 333 334 335 335 333 331 331 331 331 331 332 332 330 328 326 323 321 321 321 322 321 321 320 320 319 319 318 317 317 316 316 315 315 314 312 311 310 309
336 335 335 336 336 336 336 337 336 336 335 336 335 335 335 335 335 334 334 335 335 334 333 333 332 331 330 327 326 324 323 323 324 325 325 328 330 332 333 333 333 333 332 331 331 331 332 332 332 332 332 331 330 329 328 328 328 329 328 328 326 324 322 321 322 323 323 323 322 322 321 319 318 317 317 316 315 314 313 313 311 310 309 308 308
334 333 334 333 333 334 334 334 333 334 334 334 333 332 332 333 333 333 332 332 333 333 333 332 331 330 329 326 324 323 323 324 325 326 325 325 327 329 329 329 329 328 327 328 328 329 330 330 329 329 330 330 329 328 327 327 327 327 327 326 325 323 322 322 322 322 322 322 323 323 322 319 317 316 315 314 313 312 311 310 309 308 307 307 308
333 332 333 332 333 334 333 331 330 330 330 330 330 329 328 328 329 329 329 329 330 330 330 329 328 328 326 324 322 322 321 322 322 323 324 324 325 326 327 327 328 328 326 326 327 329 330 329 328 328 328 328 328 328 328 327 326 325 325 325 326 325 324 323 322 322 322 323 323 323 322 318 316 315 314 312 311 310 310 309 308 307 307 307 307
333 331 330 330 330 330 330 328 327 327 326 326 327 327 326 326 326 326 326 326 326 326 326 326 325 324 323 321 320 319 319 318 316 317 320 322 323 325 328 329 330 329 327 326 326 327 329 330 329 328 327 327 327 328 328 328 327 324 322 323 324 325 324 323 323 323 323 323 322 322 319 317 315 314 312 311 311 310 309 308 307 306 307 307 307
330 329 328 327 327 326 326 326 325 325 326 326 325 326 325 325 325 324 324 325 324 324 324 324 324 323 322 321 321 319 317 316 314 313 316 320 322 324 328 330 329 328 328 327 326 327 327 329 330 329 328 327 326 327 327 328 327 325 322 321 322 323 323 323 322 322 321 321 320 319 317 316 314 312 311 310 310 309 308 308 307 306 307 307 306
327 327 326 326 325 325 326 326 326 326 326 326 326 326 325 325 324 323 322 320 319 318 317 317 318 319 319 319 318 316 314 313 312 312 314 318 321 324 328 330 328 327 327 327 327 327 327 326 328 329 329 328 327 327 327 327 327 326 324 321 321 323 323 322 321 321 319 319 318 317 316 314 312 311 311 310 309 309 308 307 306 306 306 305 305
328 328 327 327 327 327 327 327 326 326 326 326 325 325 325 324 323 320 317 315 313 312 311 311 311 312 313 313 313 312 311 311 312 312 313 316 320 325 328 328 327 327 326 325 325 326 326 326 326 326 327 327 326 326 325 325 325 326 325 323 322 322 322 321 320 319 319 318 317 316 314 313 312 311 311 310 309 308 308 306 306 306 305 305 304
331 331 330 329 329 328 327 327 327 327 326 325 324 323 322 321 318 316 314 312 311 310 309 309 309 310 311 312 311 312 315 316 316 315 314 315 321 326 327 327 326 326 325 323 323 324 324 324 325 325 326 326 326 326 325 324 324 325 326 325 322 321 321 320 319 319 318 317 316 315 313 312 311 311 311 310 309 308 307 306 305 305 305 304 304
331 331 331 331 330 330 329 329 329 328 328 328 326 324 323 320 317 314 312 311 310 310 309 309 309 309 310 312 314 318 321 323 322 320 318 319 324 327 326 325 326 327 326 324 324 324 324 324 324 324 324 325 326 328 328 327 327 327 326 324 322 321 320 319 319 318 318 317 315 315 313 312 312 311 311 310 308 308 307 305 305 305 305 304 304
329 329 329 329 329 329 329 328 328 328 328 329 329 327 326 324 321 317 315 313 312 311 310 310 310 308 309 312 318 323 325 324 323 323 322 324 326 326 325 324 324 326 326 325 325 325 324 324 323 323 323 323 323 325 326 326 326 326 325 323 321 320 319 319 318 318 317 316 315 314 313 312 311 311 310 309 308 307 306 305 305 305 304 304 304
328 327 328 328 327 326 326 326 326 326 327 328 328 329 328 327 325 323 321 319 317 316 314 313 311 309 309 313 320 325 324 322 321 322 323 325 325 325 325 325 324 325 325 325 325 325 324 324 323 322 322 322 322 322 323 323 324 324 323 321 320 319 319 318 318 317 316 315 314 313 312 312 311 310 309 309 308 307 306 305 305 305 304 304 303
327 326 326 326 326 325 325 325 326 326 326 326 326 328 328 328 326 325 325 324 323 322 321 317 315 312 311 314 320 324 323 320 320 321 322 324 325 325 325 325 325 325 326 325 325 325 324 324 323 322 322 321 321 322 322 322 322 321 320 320 319 319 318 318 317 316 315 314 314 313 312 311 310 309 308 307 307 306 306 305 305 304 303 303 302
327 326 326 325 325 325 326 326 327 327 327 326 325 326 327 327 326 326 326 325 325 325 324 322 320 316 314 315 319 321 321 320 320 321 322 323 324 324 324 324 324 324 324 324 324 324 324 324 323 322 321 321 320 320 320 320 320 320 319 319 319 318 317 316 315 314 314 314 313 312 311 310 309 308 307 307 306 305 305 304 303 303 302 302 301
327 327 327 327 326 327 327 327 327 327 327 327 326 326 326 326 326 326 326 326 325 325 326 326 324 321 318 316 317 319 320 320 321 322 323 323 323 323 322 322 322 323 323 322 322 322 322 322 322 321 321 320 320 320 319 319 319 318 318 318 317 316 316 315 314 314 314 313 312 311 310 309 308 307 306 306 305 304 304 303 302 302 301 301 300
328 328 327 327 326 325 325 326 326 326 326 326 326 326 326 326 326 327 326 326 325 325 326 326 326 325 322 319 317 317 318 319 320 322 323 323 324 323 323 322 322 322 322 322 321 321 321 322 321 321 320 320 319 319 318 318 318 317 316 316 316 316 315 315 314 314 313 312 311 310 309 308 307 306 305 305 304 303 303 302 301 301 301 300 300
326 326 327 326 324 323 323 324 324 324 324 323 323 324 325 325 325 325 325 325 325 325 325 324 324 325 325 323 320 318 317 317 319 322 324 324 324 324 324 323 323 322 321 322 322 321 321 321 321 320 320 319 318 318 317 317 316 316 315 315 316 316 315 315 314 313 312 311 310 309 307 306 305 305 304 304 303 302 302 301 301 300 300 300 300
323 325 326 326 323 321 320 321 320 320 320 320 320 321 322 323 324 324 324 324 323 322 321 322 323 323 324 324 324 322 320 318 319 322 325 325 324 324 324 323 323 322 321 322 322 322 321 321 320 320 319 318 318 317 316 315 314 314 314 314 314 314 313 312 311 311 310 309 308 307 305 305 304 304 303 303 302 302 301 301 300 300 300 300 300
321 323 324 322 320 318 318 318 317 317 318 318 318 318 318 319 321 323 323 324 323 320 318 319 321 322 323 323 324 324 323 321 321 322 324 324 323 323 323 322 322 321 321 322 322 322 321 320 319 318 317 316 315 315 314 313 312 312 312 312 312 311 310 309 308 307 307 306 306 305 304 304 303 303 302 302 301 301 300 300 300 300 300 300 300
318 319 319 318 317 316 316 316 316 317 317 317 317 317 316 316 317 319 320 321 321 319 318 317 319 321 322 323 323 323 323 322 322 323 324 323 322 322 322 321 321 321 321 321 322 321 319 318 317 316 315 314 313 313 312 312 311 310 310 310 309 308 307 307 306 306 305 305 304 304 303 303 303 302 301 301 300 300 300 300 300 300 300 300 300
316 316 315 315 315 315 315 315 315 316 316 315 315 315 315 315 315 315 316 316 316 317 317 317 319 321 323 323 323 323 323 323 323 323 322 321 320 320 320 320 320 320 320 320 320 319 317 315 314 313 313 313 313 312 312 310 309 309 308 308 307 307 306 306 306 305 304 303 303 302 302 302 302 301 300 300 300 300 300 300 300 300 300 300 299
315 315 314 315 314 314 314 315 314 314 314 314 314 314 314 314 314 314 315 315 315 316 316 317 320 322 323 323 323 323 323 322 322 321 320 320 320 319 319 319 319 319 319 319 318 316 314 313 312 312 313 313 312 311 310 308 308 307 307 306 306 306 305 305 304 303 302 301 301 301 301 301 300 300 300 300 300 300 300 300 300 300 299 299 298
314 314 314 314 314 314 314 313 314 314 313 313 314 313 313 314 314 314 314 315 316 317 318 319 320 322 322 322 322 321 321 320 319 319 318 319 319 319 319 319 318 318 318 317 315 313 312 312 312 312 312 311 310 309 308 307 307 306 306 305 304 304 303 302 301 300 300 300 300 300 300 300 300 300 300 300 300 300 300 299 299 299 299 299 298
314 314 314 314 314 314 314 313 313 313 313 313 313 313 313 313 314 315 315 317 317 318 319 320 320 320 320 319 319 318 317 317 316 316 316 316 317 317 317 317 317 317 317 315 313 311 311 311 312 311 311 310 308 307 306 306 305 304 304 303 302 301 301 300 299 299 300 300 300 300 300 300 300 300 300 300 299 299 299 299 299 299 298 298 298
Wind_Speed
30 30 30 28 27 27 26 25 23 22 22 22 22 21 20 20 19 18 19 19 20 21 21 20 19 19 18 18 17 17 16 15 15 15 15 15 15 15 15 14 14 13 11 10 9 9 10 11 12 12 12 12 12 12 12 12 12 13 13 13 13 12 11 10 9 10 15 15 13 12 11 10 9 8 8 9 9 9 9 9 8 7 7 7 6
30 30 30 29 29 28 28 27 25 24 23 22 22 21 21 21 20 19 19 20 20 20 21 21 20 20 19 18 17 17 16 16 16 16 17 17 17 16 16 16 15 14 13 12 11 11 11 12 12 13 13 14 14 14 14 14 14 15 15 15 15 14 13 12 11 10 13 16 15 13 11 9 9 9 10 10 11 11 10 9 9 7 7 7 6
30 30 29 29 29 28 28 28 27 26 25 24 23 22 21 21 21 21 21 21 21 21 21 21 21 21 21 20 19 18 17 17 17 17 18 17 17 17 16 16 15 15 14 13 12 12 13 14 14 14 14 15 16 16 15 15 15 16 17 16 17 16 14 12 12 11 12 15 15 13 10 9 10 10 10 11 11 11 10 9 8 7 6 7 6
29 29 29 29 28 27 27 27 27 27 27 26 25 23 22 22 22 22 22 21 22 22 22 21 21 21 21 21 21 20 20 19 19 19 19 19 18 17 17 16 16 16 15 14 13 13 14 15 15 15 15 16 17 17 16 16 16 16 17 17 17 16 14 12 12 12 12 13 15 14 12 12 11 10 10 11 11 10 10 9 8 7 6 6 6
28 29 29 28 27 27 27 26 26 27 28 28 27 25 23 23 23 22 22 22 22 22 22 21 21 20 21 21 21 21 21 21 21 21 21 20 20 19 18 18 17 16 16 15 15 14 15 16 16 16 16 16 17 17 17 17 17 17 17 17 17 16 14 13 13 13 13 14 16 16 14 13 12 11 10 11 10 9 9 9 8 7 6 6 6
28 28 28 28 27 27 27 26 26 27 28 28 27 26 25 24 24 23 22 22 22 21 21 21 20 20 20 20 21 21 21 22 23 22 22 21 21 20 20 19 18 18 17 17 16 16 17 17 17 17 17 17 17 17 17 17 17 17 17 17 17 16 15 15 13 12 12 13 14 14 14 14 12 11 10 10 9 9 8 7 7 6 6 5 5
28 28 28 28 28 28 28 27 27 27 27 27 27 26 25 24 24 24 23 23 22 22 22 21 21 20 20 21 21 21 22 22 23 22 22 22 21 21 21 20 20 19 19 19 19 19 19 19 18 17 16 16 17 17 17 17 17 17 17 17 17 17 16 16 13 10 10 11 12 12 13 13 12 10 9 9 9 8 7 6 5 4 4 4 4
28 28 28 27 28 28 28 28 28 27 26 26 26 25 25 25 25 24 23 23 24 23 23 23 22 21 22 22 22 22 23 23 23 23 23 23 22 22 21 21 22 22 22 21 20 20 19 19 18 16 15 15 16 16 15 15 16 17 16 16 17 17 16 15 13 11 11 11 11 11 12 13 12 11 10 9 8 6 5 4 4 3 3 3 4
27 27 27 28 29 29 28 27 27 26 26 26 27 27 26 26 26 25 25 25 26 26 25 24 23 23 23 24 24 24 25 25 24 24 24 24 23 22 22 22 23 23 22 20 19 19 20 20 19 17 16 15 15 14 14 15 15 16 16 15 16 16 15 14 12 10 10 10 10 9 9 11 11 10 9 9 7 5 4 3 3 3 3 3 4
23 23 22 22 21 22 24 26 26 26 26 26 27 28 28 28 27 27 27 26 27 26 26 25 25 24 24 25 25 26 27 26 26 25 25 25 24 23 23 23 23 22 20 18 18 19 19 20 19 18 16 15 15 14 14 14 13 14 14 13 13 14 14 14 12 10 8 8 9 7 7 10 12 10 9 8 7 5 4 2 2 3 3 3 3
23 22 20 19 19 17 18 21 23 25 26 27 27 28 28 28 27 28 28 27 27 26 26 26 26 26 26 26 26 27 28 27 27 26 26 26 25 25 25 24 23 22 20 19 19 19 19 20 20 18 16 16 15 14 14 13 12 14 15 13 12 12 13 13 12 10 9 9 9 7 7 10 13 12 9 8 6 6 5 4 3 3 2 2 2
24 22 19 20 23 23 21 20 21 23 25 26 27 27 27 27 27 28 28 28 27 27 26 27 27 27 26 26 27 28 29 28 27 27 27 27 27 27 26 24 24 23 22 22 21 20 19 19 18 17 16 16 15 14 14 13 12 13 15 14 13 13 13 13 12 12 12 11 10 9 8 10 12 12 10 7 5 5 4 3 3 3 3 3 3
22 20 19 18 21 24 26 25 23 23 25 26 26 26 26 27 28 28 29 28 27 27 27 27 27 27 26 26 28 29 29 30 29 28 28 27 27 27 25 24 23 21 19 17 16 16 17 17 18 18 17 15 14 14 15 15 14 14 14 15 15 14 14 14 13 14 14 13 11 10 9 9 10 10 9 7 5 4 4 4 4 5 5 4 3
22 23 24 24 22 22 24 27 27 26 25 24 25 25 26 27 28 28 28 28 28 28 28 27 27 27 27 27 28 29 30 31 30 29 28 26 26 24 22 21 19 16 16 16 17 19 21 21 20 18 15 13 11 13 15 15 15 14 13 14 15 14 13 13 14 15 14 13 12 11 10 9 9 8 8 6 4 5 6 5 5 4 2 1 1
24 24 26 27 25 24 24 26 26 25 23 23 24 25 26 28 28 28 27 27 27 27 27 27 26 26 26 27 28 29 30 30 29 28 26 25 25 24 22 22 19 16 16 19 21 20 19 19 18 16 15 13 10 11 13 13 13 13 12 13 13 12 10 11 13 14 12 10 9 7 5 4 4 3 3 2 2 2 3 3 3 2 1 4 5
24 25 25 26 26 25 26 26 24 23 24 26 26 25 26 27 27 27 25 24 24 24 24 25 25 25 25 24 23 23 25 27 27 27 26 24 24 23 22 22 20 15 14 17 18 14 12 13 15 14 13 11 9 10 11 12 11 10 10 11 9 7 7 9 9 8 6 3 1 2 4 7 9 10 9 8 7 5 2 2 2 2 2 5 8
23 23 23 25 25 25 26 26 24 24 26 27 27 27 28 27 26 24 23 22 23 22 21 22 22 22 23 22 20 18 19 20 21 23 23 24 24 23 22 21 19 15 13 14 15 13 11 11 12 11 10 9 8 8 10 10 8 8 9 8 5 4 4 4 3 3 2 5 9 11 13 13 14 14 13 13 13 11 9 8 8 4 2 4 7
20 22 24 24 24 24 24 24 24 25 27 28 28 29 29 29 27 25 22 19 16 14 13 12 12 12 13 15 16 15 15 15 16 18 19 21 21 19 19 20 18 16 14 14 13 13 12 11 10 8 7 6 6 7 8 8 7 8 9 7 3 3 3 6 8 9 11 13 15 16 16 14 12 11 13 15 15 16 17 16 13 8 4 5 8
19 21 22 22 22 23 23 22 22 24 26 28 29 28 29 30 29 26 22 17 15 15 16 14 12 10 11 12 14 15 15 14 15 17 18 18 17 16 17 18 18 17 15 13 12 10 8 7 7 6 5 4 5 5 6 6 6 6 7 4 0 2 5 11 14 15 16 16 15 15 15 14 14 14 16 17 17 18 19 18 14 10 8 8 9
14 15 16 18 19 20 21 21 22 23 25 27 28 29 29 28 26 23 21 18 17 19 19 16 14 15 17 17 17 16 15 14 14 15 15 16 15 15 16 17 18 17 14 11 9 8 6 6 6 5 4 4 5 5 4 5 6 6 4 2 0 2 7 13 15 16 18 18 17 17 18 19 19 19 19 19 18 18 19 17 14 12 12 15 17
11 12 13 15 17 18 19 20 21 22 25 26 28 28 26 25 24 22 21 19 17 17 16 13 13 14 16 15 14 13 12 12 13 13 14 14 14 14 15 16 17 17 14 10 10 10 10 8 7 5 4 5 5 4 3 4 5 4 2 1 1 6 13 17 17 17 18 19 20 20 20 20 20 19 19 18 17 16 16 16 14 14 16 18 20
9 10 11 12 14 15 16 18 19 21 23 23 23 23 21 21 21 20 19 18 16 15 14 13 13 13 13 11 9 8 9 10 12 13 13 14 15 14 14 15 16 15 13 11 12 12 10 8 6 5 5 4 2 1 2 3 2 1 1 3 6 13 19 20 18 18 18 19 20 21 20 19 18 17 18 18 17 15 15 14 13 14 15 16 15
6 7 7 9 11 12 13 15 18 20 19 18 18 18 18 18 19 18 16 14 13 13 12 11 12 12 10 9 8 7 7 8 9 10 12 14 15 14 14 14 14 12 10 11 11 10 8 8 8 6 4 2 2 2 1 1 2 4 5 8 12 17 21 20 18 19 19 20 22 21 19 17 16 17 17 17 17 16 15 13 11 12 15 16 15
9 7 5 6 8 9 9 9 10 12 12 12 14 17 18 18 19 18 15 12 12 12 12 12 12 11 9 8 7 6 6 6 6 7 7 9 10 11 12 12 11 9 9 9 9 9 9 9 7 6 6 5 6 6 6 6 7 9 11 13 16 18 19 19 19 19 20 20 21 20 17 16 16 17 17 17 16 16 16 15 14 14 15 16 16
13 12 11 9 8 8 8 7 5 4 6 8 12 16 17 17 17 17 16 15 14 13 12 11 11 10 9 8 7 6 5 6 5 5 3 3 4 7 10 10 9 8 8 8 8 7 8 8 9 9 9 10 11 11 11 12 13 14 16 17 17 17 18 19 19 18 18 19 19 18 17 16 16 17 16 16 16 16 17 17 16 15 14 14 14
16 16 16 15 13 12 12 12 11 9 8 9 12 14 16 17 18 18 19 19 17 15 13 12 11 10 9 8 7 6 5 5 4 4 5 6 7 8 8 7 7 7 7 7 8 9 10 10 11 12 13 14 15 16 17 17 17 17 17 17 17 17 17 18 18 17 18 19 19 19 18 17 17 16 15 14 15 15 15 15 15 14 12 11 13
18 17 17 16 15 15 16 16 15 14 14 14 16 16 17 18 18 18 19 19 17 15 14 13 13 13 11 10 8 7 7 6 6 5 6 7 9 11 11 11 10 10 10 11 12 14 13 12 12 14 15 16 17 18 19 18 17 17 17 17 17 16 16 15 15 16 19 20 19 18 17 16 15 14 13 13 13 13 12 11 12 12 10 10 13
18 18 18 18 18 17 17 17 17 17 18 19 20 20 20 20 19 19 18 17 17 16 15 15 15 14 14 13 12 11 10 9 10 10 9 8 9 10 11 12 11 12 14 14 14 15 16 15 15 16 16 17 18 18 18 17 17 16 16 16 15 15 14 14 15 17 18 19 19 18 15 14 12 12 12 13 12 11 10 10 11 11 10 11 15
17 18 19 20 20 19 19 18 19 19 20 21 22 22 20 19 19 18 16 15 15 15 16 17 16 15 16 16 15 15 14 13 13 12 11 10 10 10 11 12 12 13 14 14 15 17 17 18 17 17 17 18 18 17 17 16 16 15 14 14 13 13 14 15 15 16 17 17 18 16 14 12 11 11 11 12 13 11 10 10 11 11 12 14 17
17 17 19 20 20 19 19 19 19 20 20 21 22 22 20 18 18 17 16 15 14 15 16 16 15 15 16 16 16 16 16 15 14 12 11 11 11 12 13 14 14 15 14 14 15 18 19 19 18 18 17 17 17 17 16 14 14 14 13 12 12 13 13 13 13 14 14 15 15 14 13 12 11 11 11 12 13 12 11 11 12 12 13 16 17
17 17 18 19 18 18 18 19 19 21 21 22 23 24 23 22 20 19 19 18 18 18 18 18 16 14 15 16 16 15 14 13 12 11 11 12 13 15 16 16 15 15 15 15 17 18 19 19 18 17 16 16 15 15 14 12 12 12 12 11 11 12 12 10 10 11 11 12 13 13 11 11 11 10 11 12 12 12 12 12 12 13 14 15 15
18 16 16 17 17 17 19 19 20 21 22 22 23 24 24 24 22 21 20 20 20 20 19 18 16 15 14 14 13 13 11 11 10 10 11 12 14 15 16 15 14 13 13 15 18 18 18 18 18 16 15 15 14 13 12 12 12 11 11 11 11 10 10 9 8 9 10 11 12 12 10 10 10 10 11 11 12 12 12 12 12 13 14 14 13
18 17 17 17 17 18 19 19 20 20 20 21 21 21 22 22 21 20 19 18 18 18 17 16 14 13 12 11 10 10 9 9 9 9 11 12 14 15 15 14 14 13 13 15 17 17 17 17 16 15 14 14 13 12 11 11 11 11 11 11 11 10 10 9 9 9 10 11 11 11 10 10 10 11 11 11 11 11 12 12 12 12 13 13 12
19 18 18 18 19 18 18 18 17 17 17 17 17 18 19 19 19 18 17 16 16 15 14 14 12 10 9 9 8 7 8 8 9 10 11 13 14 14 14 13 13 12 12 13 15 16 15 15 14 13 12 12 12 11 11 10 10 10 10 10 11 11 11 11 11 11 12 12 11 11 10 9 9 10 11 10 10 11 12 12 11 12 12 11 10
17 17 17 17 17 17 16 16 16 15 15 15 15 16 16 15 15 16 16 15 15 14 13 13 12 11 9 9 8 9 9 10 10 10 11 13 14 14 13 12 11 12 13 14 14 14 13 13 12 11 11 11 10 10 9 9 9 8 8 10 12 12 13 13 13 13 12 11 11 11 10 8 8 9 9 9 9 10 11 11 10 10 10 8 8
15 15 14 14 14 14 14 14 14 14 14 14 14 14 14 14 14 14 14 14 14 14 13 13 12 12 11 11 11 12 12 12 11 11 11 13 14 14 12 12 12 12 13 14 15 15 14 12 11 9 8 9 10 10 9 9 9 8 8 11 13 14 14 14 14 12 11 11 10 9 8 8 8 8 7 8 9 9 10 10 9 8 7 6 6
13 13 13 12 12 12 11 11 11 11 11 12 12 13 14 14 14 14 14 14 14 14 13 12 12 12 12 12 12 13 13 13 13 13 13 14 14 13 12 12 13 12 12 12 12 13 13 13 12 10 9 7 6 7 7 7 8 8 9 12 14 15 14 13 13 11 11 10 9 8 7 7 8 6 6 7 9 8 8 7 7 6 5 4 3
11 11 11 11 11 11 10 10 9 9 9 9 10 11 12 13 13 13 14 14 13 13 13 12 11 12 12 12 13 14 15 14 14 14 14 13 12 11 10 10 10 11 11 10 10 9 10 10 10 9 9 9 8 7 7 7 7 8 10 13 14 13 13 12 12 10 9 9 8 7 7 8 7 6 5 7 7 6 6 5 4 3 2 2 2
9 9 9 9 9 9 9 9 9 9 8 8 8 8 9 10 11 11 12 12 12 12 12 12 12 12 12 13 14 15 14 14 14 14 13 12 11 10 9 9 9 9 10 10 9 8 8 8 7 7 7 7 7 7 7 8 9 10 12 14 14 13 12 11 10 9 8 7 7 7 7 7 7 6 5 5 5 5 4 3 2 2 1 1 1
10 9 8 7 6 6 6 6 7 7 7 7 7 7 7 7 8 8 9 9 10 10 11 11 11 11 11 12 13 14 13 13 13 12 11 11 11 11 10 9 9 9 9 9 9 8 7 7 6 6 6 5 5 6 6 8 9 11 12 12 12 12 11 9 8 7 7 7 7 7 7 7 7 6 5 4 4 3 2 1 1 0 0 2 3
11 10 9 8 7 6 6 6 5 5 5 5 6 6 6 6 5 5 5 6 6 7 8 9 9 10 10 11 12 12 11 10 10 10 9 9 9 9 9 9 9 9 9 8 8 7 6 6 5 5 5 4 5 6 7 8 9 10 10 10 10 10 10 8 6 6 6 6 7 7 8 7 6 5 4 3 2 1 0 1 1 2 3 4 4
11 11 11 11 10 10 10 9 8 8 7 6 5 5 5 4 4 4 4 4 4 4 5 6 7 8 9 9 10 9 8 7 7 8 8 7 5 5 5 6 7 8 8 7 7 7 6 5 5 5 4 4 5 5 7 7 8 8 8 8 8 8 8 7 6 5 6 7 8 8 8 6 5 3 3 2 1 1 1 2 3 4 5 5 4
8 9 10 10 10 10 11 11 10 10 9 9 8 7 7 6 5 5 5 5 5 4 5 5 5 7 8 8 8 8 7 6 5 6 6 6 5 4 3 2 3 4 5 5 5 5 4 4 4 4 4 5 5 6 6 6 6 6 6 6 6 6 6 6 6 6 7 8 8 7 6 5 4 3 2 2 2 2 2 3 4 5 5 4 3
7 8 9 9 9 9 10 10 10 10 10 9 9 8 7 6 6 7 7 6 5 5 5 4 4 5 7 8 8 7 6 5 5 5 5 4 3 3 3 2 4 5 5 4 3 3 2 2 2 3 5 6 6 6 6 6 5 4 4 5 6 6 6 6 7 7 7 7 7 6 5 4 3 2 2 2 2 2 4 5 5 5 4 4 4
6 8 9 10 10 11 11 11 11 11 10 10 9 8 6 6 6 6 6 6 6 5 5 5 4 4 4 6 8 8 6 5 5 5 4 3 2 2 3 3 5 6 6 6 5 5 4 3 4 5 6 7 8 8 7 7 7 7 6 6 7 9 9 9 8 8 7 6 6 6 5 4 3 2 1 2 3 4 5 6 5 4 4 4 4
8 9 11 12 12 12 12 12 12 12 11 10 9 8 7 6 6 6 7 7 6 5 5 5 5 5 4 5 6 7 7 7 6 5 4 4 4 4 4 5 5 5 5 6 6 7 7 7 7 7 8 9 10 10 10 11 10 10 9 9 9 10 10 10 9 9 7 6 5 5 3 2 2 2 3 4 5 6 5 5 3 3 3 4 4
10 11 12 12 12 12 11 11 10 10 10 9 9 8 7 7 7 7 7 7 6 6 5 6 6 6 6 6 6 7 8 8 8 7 6 6 7 7 7 7 7 6 5 4 5 6 7 8 8 8 10 12 13 13 12 11 10 11 11 11 10 10 10 9 8 7 6 4 3 2 1 1 2 4 5 6 6 5 4 3 3 3 4 4 4
10 11 11 11 11 11 10 10 9 8 8 7 7 7 7 7 7 7 7 6 5 4 4 4 4 5 5 6 7 8 9 9 9 9 9 9 9 8 8 7 6 5 4 3 3 5 7 8 10 11 13 13 12 11 11 11 12 12 13 12 11 10 9 7 5 3 2 2 1 2 2 4 6 8 8 7 6 5 4 4 3 3 4 5 6
10 11 11 10 10 10 9 9 8 8 8 7 7 7 7 7 7 6 6 6 5 4 4 3 3 4 5 6 8 9 10 11 11 11 10 9 8 7 6 5 4 3 2 2 3 6 9 11 12 13 12 11 10 11 12 13 13 12 11 10 9 7 5 4 3 2 3 3 5 6 7 9 10 10 9 7 6 5 4 4 4 4 5 6 8
11 10 10 9 9 9 9 9 8 8 8 8 8 8 8 7 7 6 6 5 5 5 5 5 5 6 8 9 11 11 11 11 11 10 9 8 7 6 4 4 3 3 3 4 6 9 11 13 13 12 12 12 12 13 13 13 11 10 9 8 7 5 4 4 5 6 7 8 9 9 10 10 10 9 8 7 5 5 4 5 5 6 8 9 10
10 9 9 9 9 9 9 9 8 8 7 7 7 7 7 7 7 7 7 6 6 7 7 8 9 10 10 11 11 10 10 9 9 8 7 7 6 5 4 3 3 3 3 5 9 12 14 14 13 12 12 13 13 14 13 12 10 9 8 7 6 6 6 7 8 9 9 9 9 9 9 8 8 7 7 6 5 5 5 6 7 9 10 11 12
Wind_Direction
208 209 211 212 214 215 217 218 219 220 222 225 229 232 235 237 238 239 240 239 236 236 238 239 241 243 243 244 242 240 242 246 250 252 255 259 260 263 267 266 264 264 266 268 269 274 280 281 280 280 281 280 279 279 279 280 280 280 279 274 268 266 265 252 239 264 285 293 301 307 315 321 315 308 305 307 313 317 316 312 309 302 288 281 279
208 210 211 213 214 216 218 219 219 220 223 226 230 234 236 237 237 238 239 240 239 239 241 241 243 245 245 246 247 247 251 255 257 258 259 261 262 264 266 266 263 263 264 266 268 273 280 284 284 284 285 285 286 287 287 284 285 286 284 279 276 274 271 260 248 256 279 290 299 306 314 325 327 319 312 310 314 316 315 310 306 300 288 278 271
209 210 211 214 216 217 219 220 221 222 224 226 229 232 235 236 236 236 238 240 241 241 243 244 246 248 248 251 252 254 258 259 259 259 259 260 260 261 262 262 261 261 262 265 268 272 277 282 286 290 291 291 291 290 289 289 289 290 289 284 281 279 275 265 256 255 269 286 296 300 306 317 323 320 314 311 312 315 315 312 310 305 291 274 262
210 210 210 213 216 217 219 221 223 224 225 226 228 230 232 234 234 235 238 241 242 243 245 246 249 252 252 254 256 257 258 259 259 259 258 259 260 259 260 261 260 260 262 264 266 270 274 278 283 288 290 293 294 291 289 290 291 291 290 288 284 281 277 273 269 265 266 277 287 293 297 305 312 315 311 309 308 309 310 311 313 310 295 274 257
210 210 211 212 214 216 218 221 223 224 225 227 228 230 231 233 234 236 238 241 243 244 246 248 250 253 254 254 256 257 258 258 260 260 261 261 261 261 263 265 265 265 266 267 268 272 276 279 283 286 289 293 297 297 294 294 295 293 291 292 290 285 281 283 282 274 267 270 279 288 294 298 304 307 305 305 305 303 304 307 309 304 294 281 268
210 210 210 210 212 214 217 219 222 224 225 227 228 231 232 233 235 238 239 241 243 245 247 249 252 253 254 254 256 259 259 259 260 262 263 263 262 262 263 266 267 267 269 271 273 277 280 283 287 289 289 290 295 297 297 297 298 296 295 296 295 290 287 287 284 274 267 267 274 284 290 296 302 302 301 303 304 305 305 305 304 298 293 290 285
208 209 211 211 212 213 215 218 221 223 225 226 228 231 233 235 237 239 241 242 244 248 249 250 253 255 256 257 259 261 262 261 262 262 262 262 261 261 262 264 265 267 270 272 274 276 279 282 287 290 289 290 292 294 296 297 298 297 298 298 296 295 292 289 284 275 267 267 271 277 286 295 301 298 299 300 300 303 307 309 312 304 297 300 300
207 208 210 211 212 214 216 219 221 223 225 227 229 231 233 236 238 240 241 242 245 250 251 251 253 256 257 258 260 262 263 262 261 261 262 261 261 261 262 264 266 269 272 271 270 270 273 277 282 285 288 290 290 292 295 296 297 297 298 299 298 298 296 293 287 278 271 267 269 275 283 290 296 294 293 291 288 291 297 306 321 318 313 325 323
207 208 209 212 215 217 216 218 221 223 225 226 228 231 233 236 238 241 242 244 248 251 251 251 252 254 255 256 258 260 262 263 262 261 261 261 262 263 264 266 270 272 272 268 264 263 267 273 278 283 287 288 288 291 294 295 296 297 299 300 298 295 292 290 283 273 269 265 266 276 280 283 289 288 284 282 279 274 271 288 314 312 312 330 329
205 206 208 212 216 220 220 219 219 221 224 227 229 230 232 234 237 240 243 246 249 250 250 251 252 253 253 254 256 258 260 262 262 261 260 261 263 265 267 268 268 267 265 263 260 261 267 275 281 285 285 282 285 291 294 295 295 293 293 294 294 293 289 284 279 273 267 265 270 277 276 283 290 289 283 280 272 261 260 279 315 311 310 326 335
200 203 204 208 213 219 225 225 224 223 223 226 229 230 232 234 236 239 243 246 247 248 250 252 253 254 254 255 257 258 260 261 261 261 261 261 262 265 267 266 263 261 260 260 260 264 270 277 281 282 281 284 289 292 291 289 284 280 282 282 283 288 287 283 283 279 268 266 274 275 274 285 292 294 292 283 264 257 266 274 292 312 334 360 349
196 197 200 208 214 216 219 224 228 229 227 226 229 231 233 235 236 238 241 243 245 246 248 252 254 255 257 258 260 262 263 264 264 264 263 261 262 263 263 261 259 258 259 259 262 267 273 279 281 281 286 293 296 295 293 289 280 275 278 279 278 278 278 276 277 279 276 273 274 274 278 285 293 300 296 271 243 252 268 270 281 308 333 347 336
190 193 201 209 214 215 215 214 219 227 230 229 230 231 233 235 237 239 240 242 243 245 248 251 254 255 257 260 262 265 266 266 267 267 267 264 261 260 259 258 258 261 265 269 274 275 275 276 277 281 290 297 297 296 295 293 288 282 278 277 278 278 278 276 275 279 282 280 276 279 285 290 301 305 288 253 230 254 268 276 294 303 305 310 323
191 197 207 211 213 215 214 212 214 219 225 228 229 230 232 235 238 240 241 241 241 243 246 250 254 256 259 261 264 267 267 267 267 267 266 263 257 252 250 253 260 271 279 281 278 273 270 268 268 273 281 285 290 298 300 296 292 291 288 284 283 280 277 278 279 279 282 279 275 281 292 299 300 292 276 261 262 280 282 288 304 315 304 244 89
199 202 207 210 213 216 218 218 216 214 217 224 229 230 232 235 238 240 241 241 241 242 245 249 252 256 259 262 264 265 265 264 263 263 261 255 249 246 246 252 260 267 272 273 272 270 269 266 263 267 272 275 284 300 306 302 295 297 300 295 291 287 283 285 286 287 290 285 272 272 289 313 331 326 309 317 360 354 320 309 317 330 142 126 99
207 206 206 210 214 218 222 222 217 214 216 222 226 229 232 234 237 240 241 242 244 244 245 248 250 253 256 259 262 262 262 260 257 257 255 249 245 246 248 254 260 260 260 267 269 267 267 264 259 259 266 275 285 297 303 302 299 300 297 289 292 310 314 311 311 312 311 304 238 106 87 84 77 66 58 56 56 58 50 10 17 37 135 115 81
206 206 208 212 214 218 222 221 218 219 223 223 224 227 230 231 234 237 239 241 243 244 245 248 251 253 254 255 255 255 256 256 255 253 251 248 247 248 248 253 258 257 252 255 257 257 262 264 257 256 266 278 286 288 291 293 289 282 280 283 310 351 334 316 346 25 95 119 112 102 94 91 88 79 73 70 67 68 65 45 32 38 119 122 84
201 206 210 212 212 214 218 219 218 221 225 226 224 224 226 227 229 231 234 235 232 230 233 239 244 252 256 255 252 249 249 254 260 262 258 253 249 248 251 256 257 254 248 246 247 249 253 256 252 250 258 269 272 271 278 286 281 273 278 286 324 36 110 131 120 111 113 111 106 101 95 90 87 78 70 68 69 70 65 50 34 33 68 127 120
196 207 213 212 211 214 217 219 221 222 226 229 228 226 225 225 225 225 223 222 222 225 229 232 233 244 258 259 254 251 249 253 262 269 269 264 257 255 258 259 255 250 245 239 237 236 236 238 238 233 236 250 260 268 283 295 294 291 292 289 310 96 130 134 127 119 115 109 100 92 83 75 72 67 64 65 64 65 67 60 49 48 68 102 111
192 206 213 212 212 215 219 223 227 227 230 233 234 232 230 226 222 216 210 210 219 227 231 234 238 244 250 255 257 259 261 261 260 262 265 265 260 254 249 249 249 245 236 227 227 232 229 222 220 222 235 253 260 266 284 296 299 304 309 309 140 146 146 140 131 121 114 107 100 93 83 77 73 72 73 73 67 65 68 69 68 76 90 95 89
186 196 206 210 211 215 219 224 228 232 234 234 234 233 228 220 214 208 199 197 205 213 216 219 229 236 241 249 255 257 259 257 253 252 254 255 254 250 246 249 250 245 239 235 235 234 228 214 203 212 245 257 256 258 274 291 300 307 310 326 128 146 144 138 131 124 113 104 97 91 85 83 81 79 79 79 75 72 73 77 84 91 97 99 94
173 183 193 204 211 215 218 219 224 230 232 229 227 226 219 210 203 197 189 188 195 202 203 206 215 220 224 230 233 231 233 238 243 248 252 252 251 248 249 251 249 245 243 238 227 218 208 199 200 217 236 239 239 257 282 286 284 255 181 136 132 142 145 141 134 126 117 107 100 95 92 90 90 88 86 83 82 79 77 79 90 99 99 99 100
146 165 186 204 215 222 222 219 222 226 225 220 217 212 202 193 188 185 182 185 193 197 196 196 199 199 201 205 210 215 220 224 230 238 243 246 244 241 240 241 238 232 231 225 215 206 200 201 205 204 189 156 123 116 119 126 136 138 138 135 137 144 146 142 135 128 119 110 106 104 102 101 99 98 96 92 90 89 86 87 97 108 106 99 96
132 137 154 186 206 213 213 210 215 220 219 209 194 183 177 177 182 186 186 186 191 196 195 192 186 178 176 182 194 207 210 208 214 222 231 239 236 227 225 228 225 219 219 216 211 208 204 195 181 162 142 125 116 114 110 106 111 119 125 129 136 143 144 139 136 131 122 112 109 109 110 110 109 106 101 98 97 95 94 97 103 108 107 101 96
115 109 107 114 132 152 157 149 144 172 196 185 166 159 160 164 171 177 176 178 184 185 179 178 176 169 165 168 176 187 193 196 200 191 171 182 196 195 202 211 213 212 211 205 197 188 172 155 142 134 128 124 122 117 107 98 99 108 117 123 131 139 141 139 137 130 120 115 117 119 119 116 111 108 106 104 103 99 97 101 104 105 105 103 94
102 100 100 104 113 123 126 120 111 114 134 144 140 142 146 149 155 161 164 170 177 175 167 167 169 166 163 161 163 169 175 179 181 163 132 119 123 134 147 162 175 182 179 169 154 136 126 129 133 128 125 125 121 114 105 101 103 109 114 119 125 132 136 138 136 128 123 126 128 126 121 117 112 113 113 108 104 101 101 105 106 103 100 96 85
104 102 102 104 108 110 107 106 107 109 113 116 116 118 124 129 134 141 146 153 158 158 157 158 157 155 154 152 152 153 151 143 132 120 112 113 115 117 120 128 139 145 142 138 133 125 125 131 131 126 126 124 117 110 107 106 110 114 116 117 120 125 129 130 128 124 125 130 130 124 122 121 118 114 110 104 99 98 99 102 101 97 91 84 79
105 104 103 103 103 101 100 103 107 108 105 104 103 104 107 112 115 118 125 134 141 145 150 154 156 158 156 152 146 137 127 118 112 108 106 108 114 118 120 125 132 133 132 133 132 129 131 133 130 128 128 122 113 110 110 110 111 113 116 119 120 123 126 125 123 125 128 130 130 128 128 126 119 110 104 101 99 98 97 96 94 89 84 81 83
101 102 102 102 101 102 103 105 106 103 100 97 94 92 95 100 103 104 107 116 126 135 143 148 153 155 153 148 141 131 123 114 108 106 104 106 111 114 116 121 125 125 127 133 134 132 132 132 129 128 126 122 119 118 117 116 116 116 118 122 124 126 129 128 128 131 135 135 136 138 136 128 119 112 107 104 103 101 96 91 86 80 78 82 86
97 97 99 100 102 104 105 104 104 103 101 100 97 93 92 93 97 99 100 104 112 119 123 128 135 141 141 138 133 128 122 117 112 107 103 106 113 115 116 118 118 117 121 129 134 134 134 132 128 126 124 124 125 127 124 121 120 121 124 129 132 134 135 135 136 139 143 145 146 145 140 129 120 115 110 108 107 102 91 84 80 76 79 85 88
96 93 97 101 104 107 107 106 105 105 104 105 105 103 99 96 96 97 97 100 103 106 108 112 119 126 128 128 126 123 118 114 112 110 109 113 120 121 120 118 116 117 124 131 133 134 135 133 129 126 123 123 126 130 130 126 123 125 129 134 141 145 146 143 141 142 147 151 152 150 143 132 125 120 116 114 109 99 89 83 79 78 82 87 87
101 98 101 104 108 110 110 110 108 107 107 107 108 107 105 101 97 95 97 99 100 102 104 107 113 116 117 118 117 116 113 109 109 111 114 120 126 126 122 116 111 116 127 130 128 131 136 137 136 133 128 125 127 132 136 137 136 138 138 139 145 153 154 150 146 143 144 148 150 149 145 137 130 125 121 117 110 101 93 85 79 81 86 87 85
107 107 109 112 112 111 112 111 110 109 109 109 108 108 107 106 103 100 99 99 99 101 103 104 107 110 112 113 113 112 111 109 109 113 119 125 130 129 122 112 104 107 120 127 127 130 135 139 143 147 144 140 137 140 144 147 150 153 154 152 153 157 159 157 153 149 147 147 148 149 147 141 134 129 124 118 109 101 95 87 82 85 88 88 85
104 107 110 113 113 112 111 110 109 109 109 109 109 109 108 108 108 106 103 100 98 98 99 100 103 107 113 116 116 114 114 114 116 120 125 131 134 131 123 110 100 100 110 121 128 133 137 140 146 154 159 159 159 159 159 160 160 163 168 169 167 166 165 163 158 155 153 151 149 147 143 138 134 131 126 119 109 100 92 85 82 84 86 86 86
102 104 106 107 107 107 106 105 103 103 102 102 103 103 105 106 106 105 104 102 99 95 94 95 95 96 100 105 107 107 110 114 117 121 127 133 135 131 121 106 96 95 100 105 112 121 131 139 149 162 174 180 183 182 182 182 180 178 181 183 179 173 168 165 162 158 155 153 149 143 138 136 136 132 124 115 107 98 90 85 85 86 87 87 89
102 103 102 101 100 101 101 101 100 99 98 96 94 95 96 98 99 99 99 100 100 98 96 94 91 90 92 95 99 101 104 106 109 115 126 133 135 129 114 98 93 95 96 96 97 100 103 109 120 138 162 181 192 196 197 198 198 197 196 192 184 176 169 165 161 156 154 153 149 141 138 138 138 134 124 114 106 96 89 88 87 85 82 82 86
101 101 101 100 100 99 98 97 96 95 93 91 89 88 87 88 90 93 94 95 97 98 98 97 97 98 99 100 103 105 105 105 105 110 120 130 132 125 108 97 94 97 98 96 94 91 90 88 86 89 100 118 147 169 180 189 193 192 190 187 182 175 167 163 160 158 157 157 151 145 144 144 140 135 125 114 104 94 86 84 81 76 72 70 74
101 101 101 101 100 99 97 94 92 91 90 88 86 85 85 86 88 91 93 95 97 98 99 100 101 103 107 112 116 116 112 108 104 104 110 120 126 121 109 100 98 98 99 100 97 93 91 86 80 79 82 84 93 113 134 148 157 163 168 172 172 167 162 160 160 159 158 157 152 148 148 145 140 130 114 105 99 90 83 75 65 62 64 59 64
110 108 105 104 100 94 91 91 90 89 89 92 92 91 90 91 93 94 95 97 96 95 96 96 95 97 104 115 122 121 115 106 99 97 101 109 115 115 109 105 104 103 101 101 100 97 95 92 85 83 84 82 85 99 115 127 138 149 159 163 162 160 161 162 161 159 158 156 153 150 148 143 136 124 109 102 95 83 74 58 33 24 29 73 121
121 118 116 115 110 101 93 91 89 85 86 94 101 102 99 100 101 100 100 100 100 98 97 96 95 95 102 115 124 123 116 106 98 94 97 103 107 107 104 101 102 102 101 101 100 97 96 95 92 92 93 92 96 108 120 131 140 148 154 157 157 158 161 161 157 155 156 156 152 150 146 142 136 127 116 106 91 67 44 12 319 274 167 148 135
123 124 127 128 129 127 119 109 101 97 97 102 105 105 105 105 105 103 101 103 105 107 105 104 104 105 109 119 127 127 120 111 103 99 99 103 106 105 100 96 96 95 95 94 93 91 91 91 89 89 92 95 105 118 127 134 140 144 149 154 158 158 157 154 151 153 158 159 156 151 146 141 137 128 115 103 87 46 316 215 177 149 134 129 120
125 124 126 128 130 130 125 119 114 113 113 115 116 120 126 129 124 121 121 120 118 124 130 130 130 129 129 131 135 137 133 123 111 105 104 103 103 102 99 97 96 92 88 86 84 81 85 92 93 91 95 104 117 129 133 134 139 145 150 155 158 158 155 151 150 156 161 160 156 151 145 139 129 117 112 119 138 181 172 153 140 131 124 115 101
138 133 131 132 133 131 127 126 126 124 121 121 123 127 134 139 142 145 148 146 141 141 148 153 159 162 163 159 155 154 153 143 124 113 110 109 108 111 117 130 128 113 102 98 93 87 88 101 112 120 127 134 140 143 142 141 145 151 159 165 167 167 163 157 155 157 160 158 154 149 143 134 124 118 131 162 178 168 151 138 127 120 112 97 76
152 151 148 146 143 137 134 134 133 131 129 126 126 129 135 142 147 152 155 156 154 149 148 152 163 177 186 189 187 180 168 150 129 116 111 111 115 115 119 155 173 165 153 145 141 134 130 135 148 159 163 164 163 162 157 151 147 147 159 167 163 154 148 146 145 146 150 152 148 141 131 125 126 132 149 172 173 150 133 127 119 108 93 70 47
157 163 164 159 151 144 141 139 136 134 132 127 124 126 133 146 159 166 168 164 156 147 146 147 144 148 172 192 198 196 182 157 138 125 114 115 135 148 140 145 160 169 176 182 186 186 190 199 205 196 184 177 173 167 155 141 129 120 117 122 129 129 128 128 128 128 131 135 133 127 123 126 134 144 158 165 159 142 129 122 110 88 65 45 28
153 157 157 153 147 143 142 142 141 141 140 137 135 135 139 150 165 177 183 182 175 170 171 166 155 144 144 159 179 187 180 164 154 150 144 137 139 139 130 123 128 145 168 187 198 203 205 206 203 194 177 164 154 143 132 125 121 117 114 116 121 122 121 121 123 122 120 120 117 116 121 134 147 157 155 149 142 133 124 111 91 62 42 26 16
144 143 142 141 139 137 138 140 142 143 142 142 144 147 151 158 165 172 181 188 193 199 199 188 178 171 161 153 157 164 166 164 163 161 154 139 123 115 110 109 110 117 132 161 191 201 200 193 184 170 155 146 138 130 124 121 120 119 118 116 116 115 115 118 119 116 110 104 102 104 119 139 145 147 144 137 131 123 109 90 68 48 32 19 10
135 132 131 130 129 130 133 137 139 142 143 145 149 152 155 158 160 162 167 171 177 182 183 181 181 179 171 162 159 160 161 161 157 149 138 126 115 107 103 101 99 98 102 126 173 188 182 171 161 150 143 137 130 124 121 122 123 124 121 116 112 113 115 115 111 98 85 75 78 93 112 128 135 136 131 124 116 108 93 78 62 39 21 8 359
129 125 124 123 123 126 131 136 140 144 148 151 153 152 149 151 153 155 157 159 160 157 154 156 160 162 158 152 148 148 148 146 141 135 130 124 118 115 111 107 105 102 101 125 159 166 161 154 148 142 137 131 125 123 123 124 124 123 118 112 110 111 110 104 91 79 80 89 95 103 114 123 126 124 120 115 110 101 86 66 42 18 3 350 343
132 127 124 124 125 128 132 137 140 143 146 148 149 146 145 147 149 151 155 161 160 156 152 148 141 136 132 130 129 131 132 131 128 125 123 120 117 114 112 110 110 113 117 132 147 152 150 147 143 138 133 128 125 124 124 123 121 118 112 108 106 103 92 86 87 89 92 98 104 110 116 120 120 118 114 107 97 81 60 37 15 359 348 339 335
139 134 131 132 135 136 137 138 137 139 142 146 149 150 150 150 150 150 152 151 143 135 131 128 125 122 120 119 120 122 121 120 118 117 114 112 108 103 97 92 89 96 114 132 142 146 145 143 140 135 131 128 126 125 123 119 114 109 103 98 91 84 83 88 94 99 102 105 109 113 116 117 115 110 101 87 70 53 35 15 0 350 344 339 336